Location: *
(33.8649°S, 62.1526°E)
Time: 04:50:40
(UTC+00:00)

METEOR-M - Pass Details

Date: 17 January 2021
Orbit: 816 x 819 km, 98.5° (Epoch: 27 February)

Event Time Altitude Azimuth Distance (km) Brightness Sun altitude
Rises 23:37:55 0° 15° (NNE) 3,332 7.1 -15.1°
Reaches altitude 10° 23:40:15 10° 15° (NNE) 2,407 6.3 -14.7°
Maximum altitude 23:45:35 88° 101° (E) 830 4.2 -13.9°
Drops below altitude 10° 23:51:00 10° 192° (SSW) 2,436 6.9 -13.0°
Sets 23:53:22 0° 192° (SSW) 3,375 7.7 -12.6°
